User: anonymous   Login
Location: Unspecified
(0.0000°N, 0.0000°E)
Time: 20:07:37
(UTC+01:00)
Language:

Cosmos 1758 - Orbit

View from above orbital plane
View from above orbital plane
View from above satellite
View from above satellite

Ground track
Ground track

The orbit data is extracted from the following two-line orbital elements,

1 16791U 86046A   17056.72291559 +.00000553 +00000-0 +37457-4 0  9990
2 16791 082.4723 140.6758 0018190 107.6303 252.6912 15.04321355668648
Epoch (UTC): 25 February 2017 17:20:59
Eccentricity: 0.0018190
inclination: 82.4723°
perigee height: 541 km
apogee height: 566 km
right ascension of ascending node: 140.6758°
argument of perigee: 107.6303°
revolutions per day: 15.04321355
mean anomaly at epoch: 252.6912°
orbit number at epoch: 66864

The dashed part of the orbit path shows where the satellite is in the earth's shadow,  

DLR